| time (UTC) | temp F | wind direction | speed knots | gust knots | rain 1hr in | rain 24hr in | rain mn in | humidity % | barometer mb |
| 20260506084639 | 57 | 301 | 5.2 | 7.0 | 0.00 | 0.01 | 0.00 | 87 | 1019.0 |
| 20260506084019 | 57 | 300 | 5.2 | 6.1 | 0.00 | 0.02 | 0.00 | 87 | 1019.1 |
| 20260506083949 | 57 | 300 | 4.3 | 6.1 | 0.00 | 0.03 | 0.00 | 8 | 1019.0 |
| 20260506083439 | 57 | 301 | 5.2 | 7.0 | 0.00 | 0.05 | 0.00 | 87 | 1019.2 |
| 20260506082819 | 57 | 303 | 6.1 | 7.0 | 0.00 | 0.07 | 0.00 | 87 | 1019.2 |
| 20260506082308 | 57 | 303 | 5.2 | 6.1 | 0.00 | 0.07 | 0.00 | 87 | 1019.2 |
| 20260506081950 | 57 | 302 | 4.3 | 5.2 | 0.00 | 0.06 | 0.00 | 8 | 1019.1 |
| 20260506081619 | 57 | 303 | 4.3 | 5.2 | 0.00 | 0.07 | 0.00 | 87 | 1019.2 |
| 20260506081019 | 57 | 303 | 5.2 | 6.1 | 0.00 | 0.09 | 0.00 | 87 | 1019.2 |
| 20260506080439 | 57 | 308 | 4.3 | 6.1 | 0.00 | 0.12 | 0.00 | 87 | 1019.2 |
| 20260506073417 | 57 | 303 | 5.2 | 7.0 | 0.00 | 0.15 | 0.00 | 87 | 1018.9 |
| 20260506072817 | 57 | 307 | 4.3 | 7.0 | 0.00 | 0.16 | 0.00 | 87 | 1018.9 |
| 20260506072220 | 57 | 302 | 5.2 | 7.0 | 0.00 | 0.16 | 0.00 | 86 | 1018.9 |
| 20260506071950 | 57 | 303 | 4.3 | 5.2 | 0.00 | 0.15 | 0.00 | 8 | 1018.7 |
| 20260506071620 | 58 | 304 | 4.3 | 5.2 | 0.00 | 0.16 | 0.00 | 86 | 1018.9 |
| 20260506071020 | 58 | 296 | 4.3 | 7.0 | 0.00 | 0.16 | 0.00 | 86 | 1018.8 |
| 20260506070500 | 58 | 281 | 6.1 | 7.0 | 0.00 | 0.16 | 0.00 | 86 | 1018.7 |
| 20260506062218 | 57 | 293 | 6.1 | 7.0 | 0.00 | 0.17 | 0.16 | 87 | 1018.5 |
| 20260506061949 | 57 | 293 | 5.2 | 7.8 | 0.00 | 0.17 | 0.15 | 8 | 1018.3 |
| 20260506061638 | 57 | 293 | 7.0 | 7.8 | 0.00 | 0.17 | 0.16 | 87 | 1018.5 |
| 20260506061038 | 57 | 293 | 7.0 | 8.7 | 0.00 | 0.17 | 0.16 | 87 | 1018.4 |
| 20260506060949 | 57 | 294 | 6.1 | 7.0 | 0.00 | 0.17 | 0.15 | 8 | 1018.3 |
| 20260506060422 | 57 | 295 | 6.1 | 8.7 | 0.00 | 0.18 | 0.16 | 88 | 1018.4 |
| 20260506051037 | 57 | 280 | 6.1 | 7.8 | 0.00 | 0.21 | 0.16 | 90 | 1018.2 |
| 20260506050422 | 57 | 282 | 7.0 | 7.8 | 0.00 | 0.22 | 0.16 | 90 | 1018.2 |
| 20260506044640 | 57 | 267 | 6.1 | 7.0 | 0.00 | 0.22 | 0.16 | 90 | 1018.0 |
| 20260506044020 | 57 | 250 | 4.3 | 6.1 | 0.00 | 0.22 | 0.16 | 90 | 1018.1 |
| 20260506043950 | 57 | 263 | 4.3 | 6.1 | 0.00 | 0.21 | 0.15 | 9 | 1017.9 |
| 20260506043420 | 57 | 265 | 5.2 | 6.1 | 0.00 | 0.22 | 0.16 | 90 | 1018.0 |
| 20260506042949 | 57 | 258 | 4.3 | 5.2 | 0.00 | 0.21 | 0.15 | 9 | 1017.8 |
| 20260506042820 | 57 | 259 | 5.2 | 6.1 | 0.00 | 0.22 | 0.16 | 90 | 1017.9 |
| 20260506042220 | 57 | 262 | 5.2 | 6.1 | 0.00 | 0.22 | 0.16 | 90 | 1017.9 |
| 20260506041951 | 57 | 259 | 4.3 | 6.1 | 0.00 | 0.21 | 0.15 | 9 | 1017.6 |
| 20260506041621 | 57 | 259 | 5.2 | 6.1 | 0.00 | 0.22 | 0.16 | 90 | 1017.7 |
| 20260506041021 | 57 | 253 | 4.3 | 6.1 | 0.00 | 0.22 | 0.16 | 90 | 1017.7 |
| 20260506040949 | 57 | 262 | 4.3 | 6.1 | 0.00 | 0.21 | 0.15 | 9 | 1017.5 |
| 20260506040429 | 57 | 259 | 4.3 | 6.1 | 0.00 | 0.22 | 0.16 | 90 | 1017.6 |
| 20260506035949 | 57 | 260 | 5.2 | 7.8 | 0.00 | 0.21 | 0.15 | 9 | 1017.4 |
| 20260506035829 | 57 | 260 | 6.1 | 7.8 | 0.00 | 0.22 | 0.16 | 90 | 1017.5 |
| 20260506035218 | 57 | 266 | 6.1 | 7.0 | 0.00 | 0.22 | 0.16 | 90 | 1017.5 |
| 20260506034618 | 57 | 258 | 5.2 | 6.1 | 0.00 | 0.22 | 0.16 | 90 | 1017.4 |
| 20260506034018 | 57 | 267 | 5.2 | 6.1 | 0.00 | 0.22 | 0.16 | 90 | 1017.3 |
| 20260506033950 | 57 | 262 | 4.3 | 6.1 | 0.00 | 0.21 | 0.15 | 8 | 1017.2 |
| 20260506033418 | 57 | 260 | 4.3 | 6.1 | 0.00 | 0.22 | 0.16 | 90 | 1017.3 |
| 20260506032818 | 57 | 265 | 5.2 | 7.0 | 0.00 | 0.22 | 0.16 | 90 | 1017.2 |
| 20260506032218 | 57 | 259 | 5.2 | 7.0 | 0.00 | 0.22 | 0.16 | 90 | 1017.1 |
| 20260506031951 | 57 | 251 | 4.3 | 5.2 | 0.00 | 0.21 | 0.15 | 8 | 1017.0 |
| 20260506031638 | 57 | 262 | 5.2 | 6.1 | 0.00 | 0.22 | 0.16 | 90 | 1017.1 |
| 20260506031018 | 57 | 248 | 5.2 | 7.0 | 0.00 | 0.22 | 0.16 | 90 | 1017.0 |
| 20260506030949 | 57 | 255 | 4.3 | 6.1 | 0.00 | 0.21 | 0.15 | 8 | 1016.9 |
| 20260506030418 | 57 | 254 | 5.2 | 6.1 | 0.00 | 0.22 | 0.16 | 90 | 1017.0 |
| 20260506025950 | 57 | 253 | 4.3 | 6.1 | 0.00 | 0.21 | 0.15 | 8 | 1016.8 |
| 20260506025839 | 57 | 254 | 4.3 | 6.1 | 0.00 | 0.22 | 0.16 | 89 | 1016.9 |
| 20260506025219 | 57 | 251 | 5.2 | 6.1 | 0.00 | 0.22 | 0.16 | 89 | 1016.9 |
| 20260506024949 | 57 | 250 | 4.3 | 5.2 | 0.00 | 0.21 | 0.15 | 8 | 1016.8 |
| 20260506024642 | 57 | 248 | 6.1 | 7.0 | 0.00 | 0.22 | 0.16 | 89 | 1016.9 |
| 20260506024022 | 57 | 246 | 5.2 | 6.1 | 0.00 | 0.22 | 0.16 | 89 | 1016.8 |
| 20260506023949 | 57 | 249 | 5.2 | 6.1 | 0.00 | 0.21 | 0.15 | 8 | 1016.7 |
| 20260506023420 | 57 | 254 | 5.2 | 7.0 | 0.00 | 0.22 | 0.16 | 89 | 1016.8 |
| 20260506022819 | 57 | 244 | 6.1 | 7.8 | 0.00 | 0.22 | 0.16 | 89 | 1016.7 |
| 20260506022219 | 57 | 251 | 6.1 | 7.8 | 0.00 | 0.22 | 0.16 | 89 | 1016.7 |
| 20260506021949 | 56 | 247 | 5.2 | 7.0 | 0.00 | 0.21 | 0.15 | 8 | 1016.5 |
| 20260506021637 | 57 | 244 | 7.0 | 7.8 | 0.00 | 0.22 | 0.16 | 89 | 1016.6 |
| 20260506021016 | 57 | 246 | 7.0 | 7.8 | 0.00 | 0.22 | 0.16 | 89 | 1016.7 |
| 20260506020420 | 57 | 248 | 7.0 | 8.7 | 0.00 | 0.22 | 0.16 | 89 | 1016.7 |
| 20260506015949 | 56 | 257 | 7.8 | 10.4 | 0.00 | 0.21 | 0.15 | 8 | 1016.5 |
| 20260506015819 | 57 | 258 | 8.7 | 10.4 | 0.00 | 0.22 | 0.16 | 89 | 1016.7 |
| 20260506015220 | 57 | 254 | 7.8 | 8.7 | 0.00 | 0.22 | 0.16 | 89 | 1016.7 |
| 20260506014949 | 56 | 255 | 7.8 | 9.6 | 0.00 | 0.21 | 0.15 | 8 | 1016.5 |
| 20260506014620 | 57 | 258 | 8.7 | 9.6 | 0.00 | 0.22 | 0.16 | 89 | 1016.7 |
| 20260506014020 | 57 | 259 | 7.8 | 8.7 | 0.00 | 0.22 | 0.16 | 89 | 1016.7 |
| 20260506013951 | 56 | 261 | 7.8 | 8.7 | 0.00 | 0.21 | 0.15 | 8 | 1016.6 |
| 20260506013420 | 57 | 261 | 8.7 | 8.7 | 0.00 | 0.22 | 0.16 | 89 | 1016.7 |
| 20260506012820 | 57 | 260 | 7.8 | 8.7 | 0.00 | 0.22 | 0.16 | 89 | 1016.7 |
| 20260506012217 | 57 | 261 | 7.8 | 9.6 | 0.00 | 0.22 | 0.16 | 89 | 1016.6 |
| 20260506011950 | 56 | 257 | 7.8 | 8.7 | 0.00 | 0.21 | 0.15 | 8 | 1016.5 |
| 20260506011617 | 57 | 253 | 7.8 | 9.6 | 0.00 | 0.22 | 0.16 | 89 | 1016.6 |
| 20260506011017 | 57 | 260 | 8.7 | 9.6 | 0.00 | 0.22 | 0.16 | 89 | 1016.6 |
| 20260506010949 | 56 | 256 | 7.8 | 9.6 | 0.00 | 0.21 | 0.15 | 8 | 1016.6 |
| 20260506010417 | 57 | 260 | 8.7 | 10.4 | 0.00 | 0.22 | 0.16 | 89 | 1016.6 |
| 20260506005950 | 56 | 258 | 7.8 | 9.6 | 0.00 | 0.21 | 0.15 | 8 | 1016.3 |
| 20260506005818 | 57 | 258 | 7.8 | 9.6 | 0.00 | 0.22 | 0.16 | 89 | 1016.5 |
| 20260506005221 | 57 | 256 | 8.7 | 9.6 | 0.00 | 0.22 | 0.16 | 89 | 1016.5 |
| 20260506004949 | 57 | 252 | 7.8 | 9.6 | 0.00 | 0.21 | 0.15 | 8 | 1016.3 |
| 20260506004642 | 57 | 254 | 8.7 | 9.6 | 0.00 | 0.22 | 0.16 | 88 | 1016.4 |
| 20260506004021 | 57 | 252 | 7.8 | 10.4 | 0.00 | 0.22 | 0.16 | 88 | 1016.3 |
| 20260506003950 | 56 | 250 | 7.0 | 8.7 | 0.00 | 0.21 | 0.15 | 8 | 1016.1 |
| 20260506003442 | 57 | 258 | 8.7 | 9.6 | 0.00 | 0.22 | 0.16 | 88 | 1016.2 |
| 20260506002839 | 57 | 258 | 8.7 | 9.6 | 0.00 | 0.22 | 0.16 | 89 | 1016.2 |
| 20260506002242 | 57 | 252 | 7.8 | 9.6 | 0.00 | 0.22 | 0.16 | 89 | 1016.1 |
| 20260506001951 | 56 | 255 | 7.8 | 9.6 | 0.00 | 0.21 | 0.15 | 8 | 1015.9 |
| 20260506001618 | 57 | 265 | 7.8 | 9.6 | 0.00 | 0.22 | 0.16 | 89 | 1016.0 |
| 20260506001039 | 57 | 259 | 8.7 | 9.6 | 0.00 | 0.22 | 0.16 | 89 | 1016.2 |
| 20260506000418 | 57 | 258 | 8.7 | 9.6 | 0.00 | 0.22 | 0.16 | 88 | 1016.1 |
| 20260505235950 | 56 | 254 | 7.8 | 10.4 | 0.00 | 0.21 | 0.15 | 8 | 1016.0 |
| 20260505235859 | 57 | 255 | 8.7 | 10.4 | 0.00 | 0.22 | 0.16 | 88 | 1016.2 |
| 20260505235219 | 57 | 259 | 8.7 | 9.6 | 0.00 | 0.22 | 0.16 | 88 | 1016.0 |
| 20260505234949 | 56 | 262 | 8.7 | 9.6 | 0.00 | 0.21 | 0.15 | 8 | 1015.7 |
| 20260505234619 | 57 | 263 | 8.7 | 10.4 | 0.00 | 0.22 | 0.16 | 87 | 1015.8 |
| 20260505234039 | 57 | 257 | 8.7 | 10.4 | 0.00 | 0.22 | 0.16 | 87 | 1016.5 |
| 20260505233950 | 56 | 255 | 7.8 | 9.6 | 0.00 | 0.21 | 0.15 | 8 | 1016.3 |
| 20260505233420 | 56 | 260 | 7.0 | 8.7 | 0.00 | 0.22 | 0.16 | 87 | 1016.5 |
| 20260505232819 | 56 | 263 | 7.0 | 7.8 | 0.00 | 0.22 | 0.16 | 88 | 1016.5 |
| 20260505232240 | 56 | 268 | 7.8 | 9.6 | 0.00 | 0.22 | 0.16 | 88 | 1016.6 |
| 20260505231950 | 56 | 262 | 7.0 | 8.7 | 0.00 | 0.21 | 0.15 | 8 | 1016.4 |
| 20260505231640 | 56 | 261 | 7.0 | 8.7 | 0.00 | 0.22 | 0.16 | 88 | 1016.5 |
| 20260505231020 | 56 | 256 | 7.8 | 8.7 | 0.00 | 0.22 | 0.16 | 88 | 1016.5 |
| 20260505230420 | 56 | 255 | 7.8 | 8.7 | 0.00 | 0.22 | 0.16 | 88 | 1016.4 |
| 20260505225950 | 56 | 253 | 7.0 | 8.7 | 0.00 | 0.21 | 0.15 | 8 | 1016.2 |
| 20260505225840 | 56 | 253 | 7.0 | 9.6 | 0.00 | 0.22 | 0.16 | 88 | 1016.3 |
| 20260505225217 | 56 | 255 | 8.7 | 9.6 | 0.00 | 0.22 | 0.16 | 88 | 1016.3 |
| 20260505224623 | 56 | 259 | 8.7 | 9.6 | 0.00 | 0.22 | 0.16 | 88 | 1016.3 |
| 20260505224020 | 56 | 257 | 7.8 | 8.7 | 0.00 | 0.22 | 0.16 | 88 | 1016.3 |
| 20260505223950 | 56 | 257 | 8.7 | 9.6 | 0.00 | 0.21 | 0.15 | 8 | 1016.2 |
| 20260505223440 | 56 | 263 | 8.7 | 10.4 | 0.00 | 0.22 | 0.16 | 87 | 1016.2 |
| 20260505222841 | 56 | 259 | 7.8 | 9.6 | 0.00 | 0.22 | 0.16 | 87 | 1016.3 |
| 20260505222220 | 56 | 259 | 7.8 | 8.7 | 0.00 | 0.22 | 0.16 | 87 | 1016.1 |
| 20260505221950 | 56 | 265 | 7.8 | 8.7 | 0.00 | 0.21 | 0.15 | 8 | 1016.0 |
| 20260505221620 | 56 | 266 | 7.8 | 10.4 | 0.00 | 0.22 | 0.16 | 87 | 1016.1 |
| 20260505221020 | 56 | 265 | 7.8 | 9.6 | 0.00 | 0.22 | 0.16 | 87 | 1016.2 |
| 20260505220421 | 56 | 259 | 8.7 | 9.6 | 0.00 | 0.22 | 0.16 | 86 | 1016.1 |
| 20260505215950 | 56 | 256 | 7.8 | 8.7 | 0.00 | 0.21 | 0.15 | 8 | 1016.2 |
| 20260505215821 | 57 | 256 | 7.8 | 9.6 | 0.00 | 0.22 | 0.16 | 86 | 1016.3 |
| 20260505215221 | 56 | 258 | 7.8 | 8.7 | 0.00 | 0.22 | 0.16 | 86 | 1016.4 |
| 20260505214618 | 56 | 262 | 8.7 | 9.6 | 0.00 | 0.22 | 0.16 | 86 | 1016.3 |
| 20260505214018 | 56 | 265 | 7.8 | 9.6 | 0.00 | 0.22 | 0.16 | 86 | 1016.1 |
| 20260505213950 | 56 | 260 | 7.8 | 8.7 | 0.00 | 0.21 | 0.15 | 8 | 1016.0 |
| 20260505213418 | 56 | 264 | 8.7 | 9.6 | 0.00 | 0.22 | 0.16 | 87 | 1016.2 |
| 20260505212819 | 56 | 266 | 8.7 | 10.4 | 0.00 | 0.22 | 0.16 | 87 | 1016.4 |
| 20260505212219 | 56 | 270 | 8.7 | 9.6 | 0.00 | 0.22 | 0.16 | 88 | 1016.5 |
| 20260505211950 | 55 | 271 | 7.8 | 8.7 | 0.00 | 0.21 | 0.15 | 8 | 1016.2 |
| 20260505211639 | 56 | 273 | 8.7 | 9.6 | 0.00 | 0.22 | 0.16 | 88 | 1016.4 |
| 20260505211019 | 56 | 276 | 7.8 | 9.6 | 0.00 | 0.22 | 0.16 | 88 | 1016.5 |
| 20260505210422 | 56 | 270 | 7.8 | 9.6 | 0.00 | 0.22 | 0.16 | 87 | 1016.3 |
| 20260505205950 | 56 | 271 | 7.8 | 9.6 | 0.00 | 0.21 | 0.15 | 8 | 1016.2 |
| 20260505205839 | 57 | 272 | 7.8 | 9.6 | 0.00 | 0.22 | 0.16 | 87 | 1016.3 |
| 20260505205219 | 57 | 281 | 7.8 | 9.6 | 0.00 | 0.22 | 0.16 | 86 | 1016.2 |
| 20260505204622 | 56 | 268 | 8.7 | 10.4 | 0.00 | 0.22 | 0.16 | 85 | 1016.1 |
| 20260505204022 | 56 | 267 | 7.8 | 9.6 | 0.00 | 0.22 | 0.16 | 85 | 1016.2 |
| 20260505203950 | 56 | 268 | 7.8 | 8.7 | 0.00 | 0.21 | 0.15 | 8 | 1015.9 |
| 20260505203440 | 56 | 268 | 7.8 | 9.6 | 0.00 | 0.22 | 0.16 | 85 | 1016.2 |
| 20260505202819 | 56 | 272 | 8.7 | 9.6 | 0.00 | 0.22 | 0.16 | 86 | 1016.1 |
| 20260505202217 | 56 | 272 | 7.8 | 9.6 | 0.00 | 0.22 | 0.16 | 86 | 1016.2 |
| 20260505201950 | 56 | 265 | 7.8 | 9.6 | 0.00 | 0.21 | 0.15 | 8 | 1016.1 |
| 20260505201620 | 56 | 270 | 8.7 | 10.4 | 0.00 | 0.22 | 0.16 | 86 | 1016.3 |
| 20260505201040 | 56 | 270 | 8.7 | 9.6 | 0.00 | 0.22 | 0.16 | 86 | 1016.3 |
| 20260505200420 | 56 | 266 | 8.7 | 10.4 | 0.00 | 0.22 | 0.16 | 86 | 1016.4 |
| 20260505195950 | 55 | 273 | 8.7 | 10.4 | 0.00 | 0.21 | 0.15 | 8 | 1016.1 |
| 20260505195820 | 56 | 273 | 9.6 | 10.4 | 0.00 | 0.22 | 0.16 | 86 | 1016.3 |
| 20260505195220 | 56 | 269 | 8.7 | 10.4 | 0.00 | 0.22 | 0.16 | 87 | 1016.3 |
| 20260505194637 | 56 | 278 | 7.8 | 9.6 | 0.00 | 0.22 | 0.16 | 87 | 1016.3 |
| 20260505194037 | 56 | 276 | 8.7 | 10.4 | 0.00 | 0.22 | 0.16 | 87 | 1016.3 |
| 20260505193950 | 55 | 277 | 7.8 | 9.6 | 0.00 | 0.21 | 0.15 | 8 | 1016.1 |
| 20260505193458 | 56 | 274 | 8.7 | 10.4 | 0.00 | 0.22 | 0.16 | 87 | 1016.2 |
| 20260505192817 | 56 | 276 | 7.8 | 8.7 | 0.00 | 0.22 | 0.16 | 88 | 1016.4 |
| 20260505192224 | 56 | 281 | 7.8 | 9.6 | 0.00 | 0.22 | 0.16 | 88 | 1016.4 |
| 20260505191950 | 55 | 276 | 7.0 | 8.7 | 0.00 | 0.21 | 0.15 | 8 | 1016.2 |
| 20260505191621 | 56 | 279 | 7.8 | 9.6 | 0.00 | 0.22 | 0.16 | 88 | 1016.3 |
| 20260505191018 | 56 | 276 | 7.8 | 8.7 | 0.00 | 0.22 | 0.16 | 88 | 1016.4 |
| 20260505190418 | 56 | 275 | 7.0 | 8.7 | 0.00 | 0.22 | 0.16 | 88 | 1016.4 |
| 20260505185949 | 55 | 280 | 6.1 | 7.0 | 0.00 | 0.21 | 0.15 | 8 | 1016.3 |
| 20260505185818 | 56 | 280 | 7.0 | 7.8 | 0.00 | 0.22 | 0.16 | 89 | 1016.4 |
| 20260505185219 | 56 | 284 | 7.0 | 8.7 | 0.00 | 0.22 | 0.16 | 89 | 1016.4 |
| 20260505184949 | 55 | 284 | 7.0 | 7.8 | 0.00 | 0.21 | 0.15 | 8 | 1016.4 |
| 20260505184618 | 56 | 282 | 7.0 | 7.8 | 0.00 | 0.22 | 0.16 | 89 | 1016.6 |
| 20260505184038 | 56 | 290 | 7.8 | 9.6 | 0.00 | 0.22 | 0.16 | 89 | 1016.6 |
| 20260505183949 | 55 | 294 | 5.2 | 8.7 | 0.00 | 0.21 | 0.15 | 8 | 1016.5 |
| 20260505183419 | 56 | 300 | 7.0 | 8.7 | 0.00 | 0.22 | 0.16 | 89 | 1016.6 |
| 20260505182949 | 55 | 299 | 7.0 | 8.7 | 0.00 | 0.21 | 0.15 | 8 | 1016.6 |
| 20260505182819 | 56 | 299 | 7.8 | 9.6 | 0.00 | 0.22 | 0.16 | 89 | 1016.7 |
| 20260505182219 | 56 | 299 | 7.0 | 9.6 | 0.00 | 0.22 | 0.16 | 90 | 1015.9 |
| 20260505181949 | 55 | 298 | 5.2 | 7.8 | 0.00 | 0.21 | 0.15 | 8 | 1016.0 |
| 20260505181619 | 56 | 299 | 6.1 | 8.7 | 0.00 | 0.22 | 0.16 | 90 | 1016.2 |
| 20260505181019 | 55 | 296 | 7.0 | 9.6 | 0.00 | 0.22 | 0.16 | 90 | 1016.3 |
| 20260505180949 | 55 | 297 | 7.0 | 7.8 | 0.00 | 0.21 | 0.15 | 9 | 1016.0 |
| 20260505180419 | 55 | 289 | 8.7 | 9.6 | 0.00 | 0.22 | 0.16 | 90 | 1016.1 |
| 20260505175949 | 55 | 299 | 6.1 | 7.8 | 0.00 | 0.21 | 0.15 | 9 | 1015.8 |
| 20260505175819 | 56 | 300 | 7.0 | 8.7 | 0.00 | 0.22 | 0.16 | 91 | 1015.9 |
| 20260505175300 | 56 | 292 | 8.7 | 10.4 | 0.00 | 0.22 | 0.16 | 91 | 1015.9 |
| 20260505174623 | 56 | 301 | 6.1 | 8.7 | 0.00 | 0.22 | 0.16 | 91 | 1015.9 |
| 20260505174022 | 55 | 303 | 7.0 | 8.7 | 0.00 | 0.22 | 0.16 | 91 | 1016.0 |
| 20260505173950 | 55 | 301 | 6.1 | 7.8 | 0.00 | 0.21 | 0.15 | 9 | 1015.8 |
| 20260505173426 | 56 | 300 | 5.2 | 8.7 | 0.00 | 0.22 | 0.16 | 91 | 1015.9 |
| 20260505172826 | 56 | 298 | 5.2 | 7.8 | 0.00 | 0.22 | 0.16 | 91 | 1016.0 |
| 20260505172226 | 56 | 302 | 5.2 | 7.0 | 0.00 | 0.22 | 0.16 | 91 | 1016.0 |
| 20260505171949 | 55 | 302 | 4.3 | 6.1 | 0.00 | 0.21 | 0.15 | 9 | 1015.8 |
| 20260505171632 | 55 | 302 | 4.3 | 7.0 | 0.00 | 0.22 | 0.16 | 91 | 1015.9 |
| 20260505171032 | 55 | 302 | 5.2 | 7.8 | 0.00 | 0.22 | 0.16 | 91 | 1015.9 |
| 20260505170949 | 55 | 305 | 6.1 | 8.7 | 0.00 | 0.21 | 0.15 | 9 | 1015.7 |
| 20260505170417 | 55 | 307 | 7.0 | 9.6 | 0.00 | 0.22 | 0.16 | 91 | 1015.8 |
| 20260505165950 | 55 | 304 | 4.3 | 5.2 | 0.00 | 0.21 | 0.15 | 9 | 1015.7 |
| 20260505165820 | 55 | 305 | 4.3 | 6.1 | 0.00 | 0.22 | 0.16 | 91 | 1015.9 |
| 20260505165240 | 56 | 300 | 5.2 | 7.0 | 0.00 | 0.22 | 0.16 | 91 | 1015.9 |
| 20260505164949 | 55 | 302 | 5.2 | 6.1 | 0.00 | 0.21 | 0.15 | 9 | 1015.8 |
| 20260505164620 | 56 | 301 | 5.2 | 7.0 | 0.00 | 0.22 | 0.16 | 91 | 1015.9 |
| 20260505164020 | 55 | 296 | 6.1 | 7.8 | 0.00 | 0.22 | 0.16 | 91 | 1015.8 |
| 20260505163949 | 55 | 300 | 5.2 | 7.0 | 0.00 | 0.21 | 0.15 | 9 | 1015.7 |
| 20260505163421 | 55 | 300 | 5.2 | 7.0 | 0.00 | 0.22 | 0.16 | 91 | 1015.9 |
| 20260505162821 | 55 | 265 | 7.8 | 8.7 | 0.00 | 0.22 | 0.16 | 91 | 1015.8 |
| 20260505162221 | 55 | 271 | 7.8 | 8.7 | 0.00 | 0.22 | 0.16 | 91 | 1015.8 |
| 20260505161950 | 55 | 260 | 7.0 | 7.8 | 0.00 | 0.21 | 0.15 | 9 | 1015.7 |
| 20260505161621 | 55 | 254 | 7.0 | 8.7 | 0.00 | 0.22 | 0.16 | 91 | 1015.8 |
| 20260505161021 | 55 | 262 | 7.0 | 8.7 | 0.00 | 0.22 | 0.16 | 91 | 1015.7 |
| 20260505160949 | 55 | 254 | 7.0 | 7.8 | 0.00 | 0.21 | 0.15 | 9 | 1015.5 |
| 20260505160421 | 55 | 252 | 7.0 | 7.8 | 0.00 | 0.22 | 0.16 | 91 | 1015.7 |
| 20260505152949 | 54 | 219 | 6.1 | 7.0 | 0.00 | 0.21 | 0.15 | 8 | 1015.7 |
| 20260505152624 | 55 | 226 | 7.8 | 9.6 | 0.00 | 0.22 | 0.16 | 88 | 1015.7 |
| 20260505152022 | 55 | 237 | 6.1 | 7.8 | 0.00 | 0.22 | 0.16 | 88 | 1015.6 |
| 20260505151950 | 55 | 237 | 6.1 | 7.8 | 0.00 | 0.21 | 0.15 | 8 | 1015.4 |
| 20260505151419 | 55 | 236 | 7.8 | 9.6 | 0.00 | 0.22 | 0.16 | 88 | 1015.4 |
| 20260505150949 | 55 | 231 | 7.0 | 10.4 | 0.00 | 0.21 | 0.15 | 8 | 1015.2 |
| 20260505150818 | 55 | 232 | 7.8 | 10.4 | 0.00 | 0.22 | 0.16 | 88 | 1015.4 |
| 20260505150239 | 55 | 239 | 7.0 | 10.4 | 0.00 | 0.22 | 0.16 | 88 | 1015.3 |
| 20260505140223 | 55 | 221 | 6.1 | 6.1 | 0.00 | 0.22 | 0.16 | 87 | 1015.2 |
| 20260505130218 | 55 | 229 | 5.2 | 7.0 | 0.00 | 0.22 | 0.16 | 85 | 1015.0 |
| 20260505125038 | 55 | 220 | 6.1 | 7.0 | 0.00 | 0.22 | 0.16 | 84 | 1015.1 |
| 20260505124949 | 54 | 229 | 6.1 | 7.0 | 0.00 | 0.21 | 0.15 | 8 | 1014.9 |
| 20260505124418 | 55 | 244 | 7.0 | 7.8 | 0.00 | 0.22 | 0.16 | 84 | 1015.0 |
| 20260505123949 | 54 | 249 | 6.1 | 7.0 | 0.00 | 0.21 | 0.15 | 8 | 1014.9 |
| 20260505123818 | 55 | 250 | 6.1 | 7.8 | 0.00 | 0.22 | 0.16 | 84 | 1015.0 |
| 20260505123218 | 55 | 245 | 6.1 | 7.0 | 0.00 | 0.22 | 0.16 | 83 | 1015.0 |
| 20260505122638 | 55 | 244 | 5.2 | 7.0 | 0.00 | 0.22 | 0.16 | 83 | 1015.0 |
| 20260505122019 | 55 | 255 | 6.1 | 8.7 | 0.00 | 0.22 | 0.16 | 83 | 1014.9 |
| 20260505121950 | 54 | 254 | 5.2 | 7.8 | 0.00 | 0.21 | 0.15 | 8 | 1014.8 |
| 20260505121419 | 55 | 242 | 6.1 | 7.8 | 0.00 | 0.22 | 0.16 | 83 | 1014.8 |
| 20260505120949 | 54 | 240 | 5.2 | 6.1 | 0.00 | 0.21 | 0.15 | 8 | 1014.8 |
| 20260505120819 | 55 | 240 | 5.2 | 7.0 | 0.00 | 0.22 | 0.16 | 83 | 1014.9 |
| 20260505120221 | 55 | 231 | 6.1 | 7.0 | 0.00 | 0.22 | 0.16 | 82 | 1014.9 |
| 20260505115949 | 54 | 229 | 5.2 | 6.1 | 0.00 | 0.21 | 0.15 | 8 | 1014.8 |
| 20260505115619 | 55 | 232 | 5.2 | 7.0 | 0.00 | 0.22 | 0.16 | 82 | 1014.9 |
| 20260505115019 | 55 | 235 | 6.1 | 7.0 | 0.00 | 0.22 | 0.16 | 82 | 1014.9 |
| 20260505114949 | 54 | 237 | 4.3 | 5.2 | 0.00 | 0.21 | 0.15 | 8 | 1014.8 |
| 20260505114425 | 55 | 234 | 5.2 | 5.2 | 0.00 | 0.22 | 0.16 | 82 | 1015.0 |
| 20260505113949 | 54 | 253 | 3.5 | 4.3 | 0.00 | 0.21 | 0.15 | 8 | 1015.0 |
| 20260505113821 | 55 | 253 | 4.3 | 5.2 | 0.00 | 0.22 | 0.16 | 82 | 1015.1 |
| 20260505113228 | 55 | 250 | 3.5 | 4.3 | 0.00 | 0.22 | 0.16 | 82 | 1015.2 |
| 20260505112949 | 54 | 258 | 2.6 | 3.5 | 0.00 | 0.21 | 0.15 | 8 | 1015.1 |
| 20260505112625 | 55 | 257 | 3.5 | 4.3 | 0.00 | 0.22 | 0.16 | 82 | 1015.2 |
| 20260505112025 | 54 | 271 | 5.2 | 6.1 | 0.00 | 0.22 | 0.16 | 82 | 1014.9 |
| 20260505111949 | 54 | 269 | 5.2 | 6.1 | 0.00 | 0.21 | 0.15 | 8 | 1014.7 |
| 20260505111432 | 54 | 271 | 6.1 | 7.0 | 0.00 | 0.22 | 0.16 | 83 | 1014.9 |
| 20260505110852 | 54 | 291 | 5.2 | 7.0 | 0.00 | 0.22 | 0.16 | 83 | 1014.9 |
| 20260505110220 | 54 | 285 | 7.8 | 8.7 | 0.00 | 0.22 | 0.16 | 84 | 1015.0 |
| 20260505102020 | 54 | 300 | 5.2 | 8.7 | 0.01 | 0.22 | 0.16 | 88 | 1015.0 |
| 20260505101949 | 54 | 284 | 5.2 | 7.0 | 0.00 | 0.21 | 0.15 | 8 | 1014.8 |
| 20260505101420 | 54 | 306 | 3.5 | 7.0 | 0.01 | 0.22 | 0.16 | 89 | 1015.0 |
| 20260505100949 | 54 | 299 | 3.5 | 5.2 | 0.00 | 0.21 | 0.15 | 8 | 1015.1 |
| 20260505100821 | 54 | 300 | 3.5 | 5.2 | 0.01 | 0.22 | 0.16 | 89 | 1015.2 |
| 20260505100221 | 54 | 289 | 3.5 | 6.1 | 0.01 | 0.22 | 0.16 | 90 | 1015.2 |
| 20260505095949 | 54 | 302 | 2.6 | 4.3 | 0.00 | 0.21 | 0.15 | 8 | 1015.1 |
| 20260505095621 | 54 | 304 | 5.2 | 6.1 | 0.01 | 0.22 | 0.16 | 90 | 1015.3 |
| 20260505095021 | 54 | 303 | 5.2 | 7.0 | 0.01 | 0.22 | 0.16 | 90 | 1015.2 |
| 20260505094949 | 54 | 304 | 5.2 | 7.8 | 0.01 | 0.21 | 0.15 | 8 | 1015.1 |
| 20260505094421 | 54 | 300 | 6.1 | 7.8 | 0.02 | 0.22 | 0.16 | 90 | 1015.2 |
| 20260505093949 | 54 | 291 | 3.5 | 4.3 | 0.02 | 0.21 | 0.15 | 9 | 1015.1 |
| 20260505093821 | 54 | 292 | 3.5 | 5.2 | 0.03 | 0.21 | 0.16 | 90 | 1015.3 |
| 20260505093221 | 54 | 281 | 3.5 | 5.2 | 0.05 | 0.21 | 0.16 | 90 | 1015.4 |
| 20260505092949 | 53 | 201 | 1.7 | 3.5 | 0.06 | 0.21 | 0.15 | 9 | 1015.4 |
| 20260505092622 | 53 | 226 | 3.5 | 6.1 | 0.06 | 0.21 | 0.15 | 90 | 1015.5 |
| 20260505092031 | 53 | 137 | 0.9 | 2.6 | 0.06 | 0.21 | 0.15 | 90 | 1015.6 |
| 20260505091949 | 53 | 140 | 0.9 | 1.7 | 0.06 | 0.20 | 0.15 | 8 | 1015.5 |
| 20260505091451 | 53 | 154 | 1.7 | 2.6 | 0.06 | 0.21 | 0.15 | 90 | 1015.7 |
| 20260505090949 | 52 | 135 | 0.9 | 1.7 | 0.08 | 0.20 | 0.15 | 8 | 1015.6 |
| 20260505090831 | 53 | 136 | 1.7 | 1.7 | 0.09 | 0.21 | 0.15 | 90 | 1015.8 |
| 20260505090231 | 53 | 122 | 1.7 | 2.6 | 0.11 | 0.21 | 0.15 | 90 | 1015.8 |
| 20260505085949 | 52 | 74 | 0.0 | 0.0 | 0.12 | 0.20 | 0.15 | 8 | 1015.7 |
| 20260505085630 | 53 | 74 | 0.0 | 0.9 | 0.13 | 0.21 | 0.15 | 90 | 1015.8 |
| 20260505085031 | 53 | 173 | 1.7 | 1.7 | 0.13 | 0.20 | 0.15 | 89 | 1015.8 |
| 20260505084949 | 52 | 187 | 1.7 | 2.6 | 0.12 | 0.20 | 0.14 | 8 | 1015.6 |